Weather History for Ogallala, NE

Change the Weather History Date:

Friday, June 15, 2012

  Actual Average Record
Temperature  
Mean Temperature 76 °F -  
Max Temperature 90 °F 81 °F 103 °F (1952)
Min Temperature 62 °F 54 °F 39 °F (2001)
Cooling Degree Days 10    
Growing Degree Days 26 (Base 50)    
Moisture  
Dew Point 50 °F    
Average Humidity 45    
Maximum Humidity 85    
Minimum Humidity 18    
Precipitation  
Precipitation 0.03 in - - ()
Sea Level Pressure  
Sea Level Pressure 29.96 in    
Wind  
Wind Speed 9 mph (SE)    
Max Wind Speed 32 mph    
Max Gust Speed 40 mph    
Visibility 10 miles    
Events Rain , Thunderstorm    
Averages and records for this station are not official NWS values.
T = Trace of Precipitation, MM = Missing Value Source: NWS Daily Summary

Daily Weather History Graph

Daily Weather History Graph

Search for Another Location

Airport:

Trip Planner

Search our weather history database for the weather conditions in past years. The results will help you decide how hot, cold, wet, or windy it might be!

Date:

Astronomy

Jun. 15, 2012 Rise Set
Actual Time 5:13 AM MDT 8:21 PM MDT
Civil Twilight 4:40 AM MDT 8:55 PM MDT
Nautical Twilight 3:57 AM MDT 9:38 PM MDT
Astronomical Twilight 3:06 AM MDT 10:29 PM MDT
Moon 2:30 AM MDT (6/15) 5:02 PM MDT (6/15)
Length of Visible Light 16h 15m
Length of Day
15h 07m
Waning Crescent, 13% of the Moon is Illuminated
Jun 15
Waning Crescent
Jun 19
New
Jun 26
First Quarter
Jul 3
Full
Jul 10
Last Quarter

Hourly Weather History & Observations

Time (MDT) Temp. Dew Point Humidity Pressure Visibility Wind Dir Wind Speed Gust Speed Precip Events Conditions
12:15 AM 66.2 °F 51.8 °F 60% 29.98 in 10.0 mi East 5.8 mph - N/A   Clear
12:35 AM 66.2 °F 52.2 °F 61% 29.98 in 10.0 mi East 3.5 mph - N/A   Clear
12:55 AM 63.7 °F 51.8 °F 65% 29.98 in 10.0 mi East 5.8 mph - N/A   Clear
1:15 AM 64.9 °F 52.0 °F 63% 29.98 in 10.0 mi East 4.6 mph - N/A   Clear
1:35 AM 65.1 °F 52.0 °F 62% 29.98 in 10.0 mi ESE 3.5 mph - N/A   Clear
1:55 AM 63.5 °F 52.3 °F 67% 29.98 in 10.0 mi East 4.6 mph - N/A   Clear
2:15 AM 63.7 °F 52.7 °F 67% 29.99 in 10.0 mi East 4.6 mph - N/A   Clear
2:35 AM 63.1 °F 53.1 °F 70% 30.00 in 10.0 mi Calm Calm - N/A   Clear
2:55 AM 63.3 °F 52.9 °F 69% 30.02 in 10.0 mi SE 4.6 mph - N/A   Mostly Cloudy
3:15 AM 66.0 °F 54.9 °F 67% 30.01 in 10.0 mi SSE 9.2 mph - N/A   Scattered Clouds
3:35 AM 66.4 °F 53.8 °F 64% 30.00 in 10.0 mi SSE 9.2 mph 16.1 mph N/A   Clear
3:55 AM 66.0 °F 53.2 °F 63% 30.00 in 10.0 mi SSE 5.8 mph - N/A   Clear
4:15 AM 64.8 °F 53.4 °F 67% 30.00 in 10.0 mi SE 4.6 mph - N/A   Clear
4:35 AM 63.9 °F 53.2 °F 68% 29.99 in 10.0 mi ESE 3.5 mph - N/A   Clear
4:55 AM 63.1 °F 53.2 °F 70% 29.99 in 10.0 mi East 5.8 mph - N/A   Clear
5:15 AM 62.8 °F 53.6 °F 72% 29.99 in 10.0 mi East 8.1 mph - N/A   Clear
5:55 AM 63.5 °F 54.1 °F 72% 29.99 in 10.0 mi ESE 6.9 mph - N/A   Clear
6:15 AM 63.5 °F 54.5 °F 72% 30.00 in 10.0 mi ESE 6.9 mph - N/A   Clear
6:35 AM 64.6 °F 54.7 °F 70% 30.00 in 10.0 mi SE 6.9 mph - N/A   Clear
6:55 AM 64.8 °F 54.9 °F 70% 30.00 in 10.0 mi SSE 6.9 mph - N/A   Clear
7:15 AM 65.8 °F 55.4 °F 69% 30.00 in 10.0 mi South 8.1 mph - N/A   Clear
7:35 AM 67.6 °F 55.4 °F 65% 30.00 in 10.0 mi South 9.2 mph - N/A   Clear
7:55 AM 68.9 °F 55.4 °F 62% 30.00 in 10.0 mi SSW 8.1 mph - N/A   Clear
8:15 AM 69.6 °F 55.4 °F 61% 30.00 in 10.0 mi SSW 8.1 mph - N/A   Clear
8:35 AM 71.6 °F 55.6 °F 57% 30.00 in 10.0 mi SSW 6.9 mph - N/A   Clear
8:55 AM 74.1 °F 54.9 °F 51% 29.98 in 10.0 mi SSW 9.2 mph - N/A   Clear
9:15 AM 75.9 °F 53.8 °F 46% 29.98 in 10.0 mi South 8.1 mph - N/A   Clear
9:35 AM 77.9 °F 51.4 °F 40% 29.97 in 10.0 mi SSE 11.5 mph - N/A   Clear
9:55 AM 78.8 °F 52.2 °F 39% 29.97 in 10.0 mi SSE 11.5 mph 17.3 mph N/A   Clear
10:15 AM 80.8 °F 50.5 °F 35% 29.97 in 10.0 mi SE 15.0 mph 18.4 mph N/A   Clear
10:35 AM 82.8 °F 49.1 °F 31% 29.96 in 10.0 mi South 13.8 mph - N/A   Clear
10:55 AM 84.2 °F 48.2 °F 29% 29.97 in 10.0 mi South 11.5 mph 19.6 mph N/A   Clear
11:15 AM 83.8 °F 49.3 °F 30% 29.96 in 10.0 mi South 12.7 mph 16.1 mph N/A   Clear
11:35 AM 84.4 °F 49.1 °F 29% 29.96 in 10.0 mi SSE 9.2 mph - N/A   Clear
11:55 AM 86.5 °F 48.7 °F 27% 29.96 in 10.0 mi South 12.7 mph 21.9 mph N/A   Clear
12:15 PM 87.3 °F 48.7 °F 26% 29.95 in 10.0 mi South 13.8 mph 18.4 mph N/A   Clear
12:35 PM 88.2 °F 46.9 °F 24% 29.95 in 10.0 mi South 12.7 mph 23.0 mph N/A   Clear
12:55 PM 88.9 °F 45.1 °F 22% 29.94 in 10.0 mi SSW 18.4 mph 24.2 mph N/A   Clear
1:15 PM 89.6 °F 45.0 °F 21% 29.94 in 10.0 mi South 20.7 mph 24.2 mph N/A   Clear
1:35 PM 89.6 °F 45.0 °F 21% 29.93 in 10.0 mi South 16.1 mph 21.9 mph N/A   Clear
1:55 PM 88.3 °F 47.3 °F 24% 29.94 in 10.0 mi South 16.1 mph 23.0 mph N/A   Clear
2:15 PM 89.6 °F 44.8 °F 21% 29.93 in 10.0 mi South 13.8 mph 20.7 mph N/A   Clear
2:35 PM 89.8 °F 40.3 °F 18% 29.92 in 10.0 mi South 17.3 mph 26.5 mph N/A   Clear
2:55 PM 88.3 °F 46.2 °F 23% 29.92 in 10.0 mi South 18.4 mph 28.8 mph N/A   Clear
3:15 PM 88.7 °F 45.0 °F 22% 29.91 in 10.0 mi SSE 18.4 mph 25.3 mph N/A   Clear
3:35 PM 88.3 °F 43.0 °F 20% 29.91 in 10.0 mi SSE 16.1 mph 23.0 mph N/A   Clear
3:55 PM 88.5 °F 43.2 °F 20% 29.90 in 10.0 mi SSE 16.1 mph 21.9 mph N/A   Clear
4:15 PM 88.9 °F 41.9 °F 19% 29.90 in 10.0 mi SSE 17.3 mph 24.2 mph N/A   Clear
4:35 PM 88.9 °F 43.3 °F 20% 29.89 in 10.0 mi SSE 16.1 mph 23.0 mph N/A   Clear
4:55 PM 88.7 °F 42.1 °F 20% 29.89 in 10.0 mi SSE 20.7 mph 26.5 mph N/A   Clear
5:15 PM 89.1 °F 41.4 °F 19% 29.89 in 10.0 mi South 18.4 mph 27.6 mph N/A   Clear
5:35 PM 86.5 °F 45.9 °F 24% 29.89 in 10.0 mi SSE 19.6 mph 26.5 mph N/A   Clear
5:55 PM 84.7 °F 46.4 °F 26% 29.90 in 10.0 mi SE 17.3 mph 23.0 mph N/A   Clear
6:15 PM 84.0 °F 46.4 °F 27% 29.90 in 10.0 mi SE 16.1 mph 20.7 mph N/A   Clear
6:35 PM 82.6 °F 46.6 °F 28% 29.90 in 10.0 mi SE 18.4 mph 24.2 mph N/A   Clear
6:55 PM 81.1 °F 45.7 °F 29% 29.91 in 10.0 mi SE 15.0 mph 21.9 mph N/A   Clear
7:15 PM 80.1 °F 45.7 °F 30% 29.91 in 10.0 mi SE 13.8 mph - N/A   Clear
7:35 PM 78.8 °F 46.4 °F 32% 29.90 in 10.0 mi SE 9.2 mph - N/A   Clear
7:55 PM 77.7 °F 46.2 °F 33% 29.89 in 10.0 mi ESE 11.5 mph 16.1 mph N/A   Clear
8:35 PM 75.2 °F 47.5 °F 37% 29.91 in 10.0 mi East 10.4 mph - N/A   Clear
8:55 PM 74.3 °F 48.2 °F 40% 29.91 in 10.0 mi East 10.4 mph - N/A   Clear
9:15 PM 74.5 °F 48.4 °F 40% 29.93 in 10.0 mi East 9.2 mph - N/A   Mostly Cloudy
9:35 PM 74.3 °F 49.1 °F 41% 29.93 in 10.0 mi East 10.4 mph - N/A   Mostly Cloudy
9:55 PM 74.3 °F 49.3 °F 41% 29.95 in 10.0 mi ENE 9.2 mph - N/A   Mostly Cloudy
10:15 PM 75.0 °F 52.3 °F 45% 29.99 in 10.0 mi NNW 17.3 mph 24.2 mph N/A   Mostly Cloudy
10:35 PM 71.4 °F 51.6 °F 50% 30.04 in 10.0 mi NNW 32.2 mph 40.3 mph N/A Thunderstorm Overcast
10:55 PM 62.8 °F 58.1 °F 85% 29.98 in 5.0 mi NNE 26.5 mph 35.7 mph 0.02 in Rain , Thunderstorm Light Thunderstorms and Rain
11:15 PM 63.5 °F 56.3 °F 77% 29.99 in 10.0 mi NE 21.9 mph 32.2 mph 0.01 in   Mostly Cloudy
11:35 PM 64.4 °F 53.2 °F 67% 29.97 in 10.0 mi NE 24.2 mph 34.5 mph 0.01 in   Scattered Clouds
11:55 PM 65.5 °F 52.7 °F 63% 29.96 in 10.0 mi ENE 20.7 mph 27.6 mph 0.01 in   Scattered Clouds